CW0565 Weather Reports


time (UTC)temp
C
wind
direction
speed
KPH
gust
KPH
rain 1hr
cm
rain 24hr
cm
rain mn
cm
humidity
%
barometer
mb
20260904041510 11 249 0.0 3.2 0.00 0.66 0.00 85 1000.8
20260904040009 11 246 0.0 8.0 0.00 0.66 0.00 86 1000.8
20260904034514 11 246 0.0 8.0 0.00 0.66 0.00 87 1000.9
20260904033009 11 244 0.0 3.2 0.00 0.66 0.00 86 1001.0
20260904031510 11 244 0.0 6.4 0.00 0.66 0.00 85 1000.9
20260904030009 11 246 6.4 12.9 0.00 0.66 0.00 85 1001.2
20260904024513 11 242 3.2 11.3 0.00 0.66 0.00 85 1001.2
20260904023011 11 242 0.0 12.9 0.00 0.66 0.00 85 1001.2
20260904021511 12 240 0.0 12.9 0.00 0.66 0.00 85 1001.3
20260904020010 12 240 0.0 6.4 0.00 0.66 0.00 85 1001.4
20260904014510 12 238 8.0 16.1 0.00 0.66 0.00 85 1001.6
20260904013011 12 242 3.2 16.1 0.00 0.66 0.00 84 1001.6
20260904011515 12 250 9.7 24.1 0.00 0.66 0.00 84 1001.6
20260904010011 12 265 8.0 16.1 0.00 0.66 0.00 85 1001.8
20260904004510 12 268 8.0 17.7 0.00 0.66 0.00 85 1001.7
20260904003014 12 294 1.6 14.5 0.00 0.66 0.00 84 1001.9
20260904001514 12 257 4.8 16.1 0.00 0.66 0.00 86 1002.0
20260904000009 12 267 3.2 16.1 0.00 0.66 0.00 86 1002.2
20260903234510 13 245 6.4 12.9 0.00 0.66 0.00 87 1001.9
20260903233009 13 244 4.8 17.7 0.00 0.66 0.00 88 1002.3
20260903231524 13 234 9.7 19.3 0.00 0.66 0.00 89 1002.6
20260903230009 13 242 9.7 20.9 0.00 0.66 0.00 90 1002.3
20260903224527 13 221 4.8 11.3 0.00 0.66 0.00 91 1002.5
20260903223011 13 252 8.0 17.7 0.00 0.66 0.00 92 1002.3
20260903221503 13 265 11.3 19.3 0.00 0.66 0.00 95 1002.7
20260903220009 13 192 4.8 11.3 0.00 0.66 0.66 96 1002.3
20260903214515 13 199 3.2 9.7 0.00 0.66 0.66 97 1002.7
20260903213010 12 192 4.8 9.7 0.00 0.66 0.66 100 1002.6
20260903211509 12 192 4.8 8.0 0.00 0.66 0.66 100 1002.5
20260903210010 12 192 3.2 8.0 0.00 0.66 0.66 100 1002.7
20260903204512 12 306 3.2 6.4 0.00 0.66 0.66 100 1002.7
20260903203009 12 315 0.0 0.0 0.03 0.66 0.66 100 1002.7
20260903201508 12 315 0.0 0.0 0.03 0.66 0.66 98 1002.6
20260903200010 12 315 0.0 0.0 0.03 0.66 0.66 98 1002.8
20260903194512 12 315 0.0 0.0 0.05 0.66 0.66 97 1003.0
20260903193011 12 314 0.0 4.8 0.10 0.64 0.64 97 1003.1
20260903191509 12 317 1.6 6.4 0.15 0.64 0.64 97 1003.1
20260903190009 12 316 0.0 4.8 0.20 0.64 0.64 97 1002.9
20260903184510 12 317 1.6 8.0 0.28 0.61 0.61 97 1002.8
20260903183011 12 331 4.8 8.0 0.20 0.53 0.53 96 1002.8
20260903181510 12 330 4.8 9.7 0.18 0.51 0.51 96 1002.6
20260903180011 12 14 3.2 14.5 0.13 0.43 0.43 96 1002.6
20260903174510 12 323 1.6 8.0 0.05 0.33 0.33 95 1002.6
20260903173009 12 9 0.0 3.2 0.05 0.33 0.33 95 1002.5
20260903171509 12 17 1.6 3.2 0.05 0.33 0.33 95 1002.6
20260903170010 12 19 0.0 1.6 0.05 0.33 0.33 94 1002.5
20260903164509 12 18 1.6 8.0 0.05 0.30 0.30 94 1002.5
20260903163010 12 73 1.6 6.4 0.08 0.28 0.28 93 1002.7
20260903161512 12 72 3.2 8.0 0.10 0.28 0.28 93 1003.1
20260903160012 13 343 0.0 1.6 0.10 0.25 0.25 93 1003.3
20260903154510 12 344 1.6 6.4 0.15 0.23 0.23 94 1003.4
20260903153014 13 343 0.0 4.8 0.13 0.20 0.20 94 1003.7
20260903151509 13 343 0.0 1.6 0.13 0.18 0.18 93 1004.0
20260903150009 12 343 0.0 4.8 0.10 0.15 0.15 93 1004.0
20260903144510 12 343 3.2 8.0 0.05 0.08 0.08 93 1003.9
20260903143009 12 342 1.6 9.7 0.05 0.08 0.08 92 1004.1
20260903141510 12 348 4.8 14.5 0.03 0.05 0.05 91 1004.1
20260903140009 12 5 3.2 8.0 0.03 0.05 0.05 90 1004.3
20260903134510 13 30 0.0 4.8 0.00 0.05 0.05 88 1004.6
20260903133015 13 29 0.0 3.2 0.00 0.05 0.05 87 1004.6
20260903131510 13 29 0.0 0.0 0.00 0.05 0.05 86 1004.8
20260903130010 13 29 0.0 6.4 0.00 0.05 0.05 85 1004.9
20260903124517 13 65 0.0 4.8 0.00 0.05 0.05 83 1004.8
20260903123009 12 59 1.6 9.7 0.00 0.05 0.05 82 1004.9
20260903121509 13 350 1.6 8.0 0.00 0.05 0.05 80 1005.0
20260903120010 13 342 0.0 4.8 0.00 0.05 0.05 82 1005.1
20260903114510 12 342 3.2 4.8 0.00 0.05 0.05 82 1005.4
20260903113009 12 341 1.6 8.0 0.00 0.05 0.05 83 1005.5
20260903111509 12 342 1.6 6.4 0.00 0.05 0.05 84 1005.7
20260903110012 11 342 1.6 6.4 0.00 0.05 0.05 83 1005.7
20260903104509 11 342 4.8 9.7 0.00 0.05 0.05 83 1006.0
20260903103010 11 355 3.2 8.0 0.00 0.05 0.05 82 1006.2
20260903101510 11 5 3.2 9.7 0.00 0.05 0.05 82 1006.3
20260903100012 10 12 4.8 9.7 0.03 0.05 0.05 81 1006.6
20260903094510 10 5 3.2 9.7 0.03 0.05 0.05 82 1006.7
20260903093013 10 12 3.2 11.3 0.05 0.05 0.05 84 1007.0
20260903091513 9 11 3.2 6.4 0.05 0.05 0.05 85 1007.1
20260903090010 8 12 3.2 8.0 0.03 0.05 0.03 82 1007.3
20260903084510 8 12 6.4 9.7 0.03 0.05 0.03 80 1007.5
20260903083010 8 5 6.4 14.5 0.00 0.03 0.00 79 1007.6
20260903081521 8 326 6.4 14.5 0.00 0.03 0.00 77 1007.7
20260903080010 8 5 4.8 14.5 0.00 0.03 0.00 78 1007.8
20260903074509 8 360 8.0 17.7 0.00 0.03 0.00 78 1008.0
20260903073014 8 26 8.0 16.1 0.00 0.03 0.00 78 1008.1
20260903071510 7 347 0.0 6.4 0.00 0.03 0.00 82 1008.1
20260903070009 7 347 1.6 12.9 0.00 0.03 0.00 83 1008.2
20260903064509 6 355 4.8 9.7 0.00 0.03 0.00 86 1008.5
20260903063009 6 319 0.0 6.4 0.00 0.03 0.00 88 1008.8
20260903061516 6 319 0.0 4.8 0.00 0.03 0.00 89 1008.7
20260903060010 6 319 1.6 6.4 0.00 0.03 0.00 89 1008.9
20260903054510 6 319 0.0 4.8 0.00 0.03 0.00 90 1009.1
20260903053009 5 319 0.0 6.4 0.00 0.03 0.00 90 1009.1
20260903051510 5 321 0.0 8.0 0.00 0.03 0.00 91 1009.2
20260903050009 5 319 1.6 8.0 0.00 0.03 0.00 91 1009.2
20260903044510 5 251 0.0 6.4 0.00 0.03 0.00 92 1009.3
20260903043009 4 251 1.6 4.8 0.00 0.03 0.00 92 1009.3